Regional Weather Roundup
Issued by NWS Newport/Morehead, NC

Current Version | Previous Version | Graphics & Text | Print | Product List | Glossary On
Versions: 1 2 3 4 5 6 7 8 9 10 11 12 13 14 15 16 17 18 19 20 21 22 23 24 25 26 27 28 29 30 31 32 33 34 35 36 37 38 39 40 41 42 43 44 45 46 47 48 49 50
000
ASUS42 KMHX 271924
RWRMHX
WEATHER ROUNDUP FOR EASTERN NORTH CAROLINA
NATIONAL WEATHER SERVICE NEWPORT/MOREHEAD CITY NC
300 PM EDT MON APR 27 2015

NOTE: "FAIR" INDICATES FEW OR NO CLOUDS BELOW 12,000 FEET
WITH NO SIGNIFICANT WEATHER AND/OR OBSTRUCTIONS TO VISIBILITY

NCZ015>017-031-032-045>047-102-103-272000-
NORTH COAST

CITY           SKY/WX    TMP DP  RH WIND       PRES   REMARKS
EDENTON        MOSUNNY   68  38  33 NW10      29.73F
ELIZABETH CITY MOSUNNY   68  39  34 W10       29.73F
KITTY HAWK     CLEAR     58  49  71 NE7G17    29.74F
MANTEO         SUNNY     61  47  60 NE14G21   29.74S

$$

NCZ045>047-081-094-103-104-272000-
CENTRAL COAST

CITY           SKY/WX    TMP DP  RH WIND       PRES   REMARKS
FRISCO         SUNNY     63  42  46 W8        29.73F
SWANQUARTER      N/A     66 N/A N/A W8G17     29.71S

$$

NCZ095-097-098-100-101-272000-
SOUTHERN COAST

CITY           SKY/WX    TMP DP  RH WIND       PRES   REMARKS
BEAUFORT       MOSUNNY   67  45  45 SW14      29.74F
CEDAR ISLAND     N/A     64 N/A N/A N3        29.77F
JACKSONVILLE   PTSUNNY   68  40  35 NW9       29.75F
PINEY ISLAND   PTCLDY   N/A N/A N/A E7G17     29.73F
WILMINGTON     SUNNY     71  40  32 W14       29.77F


$$

NCZ011>013-027>030-043-044-078>080-089-090>093-098-272000-
COASTAL PLAIN

CITY           SKY/WX    TMP DP  RH WIND       PRES   REMARKS
AHOSKIE        MOSUNNY   65  36  34 N7        29.74F
CLINTON        MOSUNNY   69  42  38 NW7       29.78S
ELIZABETHTOWN  MOSUNNY   68  42  38 W5        29.78S
GOLDSBORO      SUNNY     69  37  31 W14G20    29.74F
GREENVILLE     MOSUNNY   68  37  32 W3        29.77F
HAVELOCK       MOSUNNY   70  40  33 N9        29.75F
KENANSVILLE    MOSUNNY   67  39  35 NW3G16    29.77S
KINSTON        MOSUNNY   68  37  32 NW9G16    29.77F
NEW BERN       SUNNY     70  40  33 N12       29.75F
RICHLANDS      MOSUNNY   70  39  32 NW6       29.76S
ROCKY MOUNT    MOSUNNY   69  36  29 NW17G23   29.77F
WASHINGTON     MOSUNNY   65  38  37 NW8       29.74S
WHITEVILLE     MOSUNNY   69  42  37 W3        29.79F

$$

AMZ130-135-150-152-154-156-158-170-250-252-270-ANZ085-086-088-633-658-670-272000-
MARINE OBSERVATIONS

STATION/POSITION TIME  TEMP    WIND        PRES    WAVE   SWELL
                       AIR SEA DIR/SP/G            HT/PER HT/PER
                 (UTC) (F)     (DEG/KT/KT) (MB)    (FT/S) (FT/S)
CHESAPEAKE LIGHT 1900   51      60/  8/  9 1008.2
64 E VA BEACH    1850   53 56  360/ 10/ 12 1007.1    3/ 8   2/ 8
DUCK             1900   53 56   30/ 16/ 17 1006.5
2 E DUCK         1811      55                N/A     3/ 8
OREGON INLET     1900   65 57  300/ 13/ 21 1006.4
13E OREGON INLT  NOT AVBL
HATTERAS CG      1900   64 62  250/  6/ 10 1006.1
DIAMOND BUOY     1850   62 75  320/ 10/ 12 1007.4    4/10   5/10
CAPE LOOKOUT     1900   62     160/  7/  8 1006.9
BEAUFORT LAB     1900   63 61  190/ 10/ 11 1006.1
27 SE WRIGHTSVLE 1900   63 73   CALM  /  2   N/A
5 SE WRIGHTSVLE  1808   65 66  140/  4/  8 1008.5
225 S CAPE HAT   1850   68 71  290/ 10/ 12 1006.4    5/ 7   5/ 7
41 SE CHARLESTON 1850   62 71   20/ 12/ 14 1009.3    3/ 6   2/ 6

$$



USA.gov is the U.S. government's official web portal to all federal, state and local government web resources and services.